Regional Weather Roundup
Issued by NWS

Home | Current Version | Previous Version | Graphics & Text | Print | Product List | Glossary On
Versions: 1 2 3 4 5 6 7 8 9 10 11 12 13 14 15 16 17 18 19 20 21 22 23 24 25 26 27
000
ASUS45 KBOI 032010
RWRID

IDAHO REGIONAL WEATHER ROUNDUP
NATIONAL WEATHER SERVICE BOISE ID
100 PM MST SAT DEC 03 2016

NOTE: "FAIR" INDICATES FEW OR NO CLOUDS BELOW 12000 FEET
WITH NO SIGNIFICANT WEATHER AND/OR OBSTRUCTIONS TO VISIBILITY

IDZ012-014-032100-
SOUTHWEST IDAHO


CITY           SKY/WX    TMP DP  RH WIND       PRES   REMARKS
BOISE          CLOUDY    42  26  53 CALM      30.27F
CALDWELL       SUNNY     42  25  50 CALM      30.29F
MOUNTAIN HOME  PTSUNNY   43  26  50 N7        30.26F
$$

IDZ016-017-032100-
SOUTHCENTRAL IDAHO


CITY           SKY/WX    TMP DP  RH WIND       PRES   REMARKS
BURLEY         PTSUNNY   39  25  57 W21G28    30.20F WCI  29
JEROME         CLOUDY    39  25  57 SW15      30.24F WCI  31
TWIN FALLS     CLOUDY    40  24  53 W20       30.23F WCI  30
$$

IDZ019>023-032100-
SOUTHEAST IDAHO


CITY           SKY/WX    TMP DP  RH WIND       PRES   REMARKS
IDAHO FALLS    CLOUDY    31  21  66 SW12      30.19F WCI  22
POCATELLO      CLOUDY    32  22  66 S15       30.20F WCI  22
REXBURG        CLOUDY    25  20  81 SW7       30.18F WCI  17
$$

IDZ006-010-011-018-031-032-032100-
CENTRAL IDAHO MOUNTAINS


CITY           SKY/WX    TMP DP  RH WIND       PRES   REMARKS
MCCALL         CLOUDY    29  22  75 CALM      30.18F
HAILEY         MOSUNNY   30  23  74 CALM      30.17F
STANLEY          N/A     30  18  60 NW9G17    30.16F WCI  22
SALMON         CLOUDY    32  23  69 CALM      30.12F
CHALLIS        SUNNY     37  21  52 NE5       30.10F WCI  33
$$

IDZ002-004-006-007-026-032100-
NORTHERN IDAHO


CITY           SKY/WX    TMP DP  RH WIND       PRES   REMARKS
LEWISTON       MOSUNNY   50  35  56 N5        30.19F
LOWELL           N/A     37  33  85 CALM      30.24F
COEUR D`ALENE  CLOUDY    41  33  73 S9        30.13F
MULLAN PASS    SNOW      24  22  91 W8        30.02R VSB 1/2 WCI  15
$$




USA.gov is the U.S. government's official web portal to all federal, state and local government web resources and services.